N9IHX Weather Reports


time (UTC)temp
F
wind
direction
speed
knots
gust
knots
rain 1hr
in
rain 24hr
in
rain mn
in
humidity
%
barometer
mb
20260906121010 68 113 1.7 3.5 0.00 0.00 0.00 83 1020.1
20260906120009 66 53 0.0 0.0 0.00 0.00 0.00 84 1019.7
20260906115009 66 53 0.0 0.0 0.00 0.00 0.00 84 1019.6
20260906114009 66 53 0.0 0.0 0.00 0.00 0.00 84 1019.5
20260906113009 66 53 0.0 0.0 0.00 0.00 0.00 84 1019.4
20260906112008 66 53 0.0 0.0 0.00 0.00 0.00 84 1019.4
20260906111008 66 53 0.0 0.0 0.00 0.00 0.00 84 1019.2
20260906110008 66 53 0.0 0.0 0.00 0.00 0.00 84 1019.2
20260906105007 66 53 0.0 0.0 0.00 0.00 0.00 84 1019.1
20260906104007 66 53 0.0 0.0 0.00 0.00 0.00 84 1019.1
20260906103007 66 53 0.0 0.0 0.00 0.00 0.00 84 1018.9
20260906102006 66 53 0.0 0.0 0.00 0.00 0.00 84 1018.8
20260906100006 66 53 0.0 0.0 0.00 0.00 0.00 84 1018.8
20260906094005 67 53 0.0 0.0 0.00 0.00 0.00 84 1018.7
20260906092005 68 53 0.0 0.0 0.00 0.00 0.00 84 1018.7
20260906091005 68 71 0.0 0.9 0.00 0.01 0.00 84 1018.7
20260906090004 68 53 0.0 1.7 0.00 0.01 0.00 83 1018.7
20260906084003 68 352 0.9 2.6 0.00 0.01 0.00 83 1018.8
20260906083004 69 116 1.7 3.5 0.00 0.01 0.00 83 1018.8
20260906082003 69 116 0.0 1.7 0.00 0.01 0.00 83 1018.7
20260906081003 69 115 0.0 0.0 0.00 0.01 0.00 83 1018.8
20260906080003 69 115 0.0 0.9 0.00 0.01 0.00 82 1018.7
20260906075002 69 116 0.0 0.9 0.00 0.01 0.00 82 1018.7
20260906074002 69 115 0.9 0.9 0.00 0.01 0.00 82 1018.7
20260906073002 69 116 0.0 1.7 0.00 0.01 0.00 82 1018.8
20260906072001 69 116 0.0 1.7 0.00 0.01 0.00 81 1018.7
20260906071001 69 116 0.0 0.9 0.00 0.01 0.00 82 1018.8
20260906070001 69 115 0.0 0.9 0.00 0.01 0.00 82 1018.9
20260906065001 69 115 0.0 0.0 0.00 0.01 0.00 82 1018.7
20260906064000 69 115 0.0 0.9 0.00 0.01 0.00 82 1018.6
20260906063000 69 116 0.0 0.0 0.00 0.01 0.00 83 1018.7
20260906061959 69 116 0.0 0.0 0.00 0.01 0.00 83 1018.7
20260906060959 69 116 0.0 0.9 0.00 0.01 0.00 83 1018.7
20260906055959 68 115 0.0 1.7 0.00 0.01 0.00 83 1018.7
20260906054959 68 116 0.0 0.9 0.00 0.01 0.00 84 1018.8
20260906053959 68 115 0.0 0.0 0.00 0.01 0.00 84 1018.7
20260906052959 68 116 0.0 0.9 0.00 0.01 0.00 84 1018.6
20260906051958 68 116 0.0 2.6 0.00 0.01 0.00 84 1018.4
20260906050958 69 115 0.0 0.9 0.00 0.01 0.00 84 1018.3
20260906045957 69 115 0.0 3.5 0.00 0.01 0.00 84 1018.3
20260906043957 69 131 0.0 1.7 0.00 0.01 0.01 83 1018.2
20260906042956 69 41 0.9 4.3 0.00 0.01 0.01 83 1018.1
20260906041956 69 72 0.9 4.3 0.00 0.01 0.01 83 1017.8
20260906040956 69 58 0.9 3.5 0.00 0.01 0.01 82 1017.8
20260906035956 70 58 0.9 3.5 0.00 0.01 0.01 82 1017.7
20260906032955 70 118 0.0 5.2 0.00 0.01 0.01 82 1017.7
20260906031955 70 312 2.6 5.2 0.00 0.02 0.01 82 1017.7
20260906030954 70 314 0.9 7.0 0.00 0.02 0.01 81 1017.7
20260906024954 70 69 3.5 6.1 0.00 0.02 0.01 82 1017.7
20260906023953 70 110 1.7 3.5 0.00 0.02 0.01 82 1017.6
20260906021953 70 90 2.6 8.7 0.00 0.02 0.01 81 1017.5
20260906020952 70 65 0.0 8.7 0.00 0.02 0.01 81 1017.7
20260906020022 70 83 1.7 5.2 0.00 0.02 0.01 81 1017.8
20260906014952 70 68 0.0 6.1 0.00 0.02 0.01 80 1017.9
20260906014022 70 46 2.6 7.0 0.00 0.02 0.01 80 1017.8
20260906013021 70 27 0.9 3.5 0.00 0.02 0.01 80 1017.7
20260906012021 70 352 0.9 7.8 0.00 0.02 0.01 80 1017.8
20260906011021 70 357 3.5 6.1 0.00 0.02 0.01 80 1017.7
20260906010021 70 96 0.9 10.4 0.00 0.02 0.01 80 1017.5
20260906005020 70 68 0.0 7.0 0.00 0.02 0.01 80 1017.2
20260906004020 70 73 1.7 7.8 0.00 0.02 0.01 80 1017.2
20260906003020 70 53 4.3 7.8 0.00 0.02 0.01 80 1017.2
20260906002020 70 53 0.0 5.2 0.00 0.02 0.01 80 1017.1
20260906000019 70 61 0.0 8.7 0.00 0.02 0.01 81 1017.3
20260905235019 70 64 3.5 11.3 0.00 0.02 0.01 81 1017.2
20260905234019 70 343 3.5 9.6 0.00 0.02 0.01 80 1017.2
20260905233018 70 316 1.7 10.4 0.00 0.02 0.01 80 1017.2
20260905232018 70 62 1.7 7.0 0.00 0.02 0.01 80 1017.2
20260905231018 70 78 4.3 9.6 0.00 0.02 0.01 80 1017.1
20260905225017 71 18 5.2 7.8 0.00 0.02 0.01 80 1016.9
20260905224016 71 11 2.6 10.4 0.00 0.02 0.01 80 1017.1
20260905223016 71 120 0.9 7.0 0.00 0.02 0.01 79 1017.0
20260905221016 72 101 2.6 7.8 0.00 0.02 0.01 78 1016.9
20260905215015 73 36 0.9 8.7 0.00 0.02 0.01 78 1016.7
20260905212014 75 60 1.7 7.8 0.00 0.02 0.01 76 1016.5
20260905210014 77 345 1.7 7.0 0.00 0.02 0.01 73 1016.5
20260905205014 77 359 5.2 7.0 0.00 0.02 0.01 71 1016.5
20260905204013 77 335 6.1 11.3 0.00 0.02 0.01 72 1016.5
20260905202013 77 51 0.9 9.6 0.00 0.02 0.01 72 1016.6
20260905201012 78 342 1.7 9.6 0.00 0.02 0.01 71 1016.5
20260905200012 77 8 0.9 7.0 0.00 0.02 0.01 73 1016.5
20260905195012 76 354 0.9 4.3 0.00 0.02 0.01 75 1016.8
20260905194012 76 113 2.6 6.1 0.00 0.02 0.01 74 1016.9
20260905193012 76 345 0.9 7.8 0.00 0.02 0.01 74 1016.9
20260905192011 76 61 3.5 9.6 0.00 0.02 0.01 72 1016.9
20260905191010 76 68 1.7 8.7 0.00 0.02 0.01 74 1016.9
20260905190010 76 36 1.7 6.1 0.00 0.02 0.01 74 1016.9
20260905185010 76 56 1.7 9.6 0.00 0.02 0.01 73 1017.0
20260905184010 76 352 1.7 8.7 0.00 0.02 0.01 75 1017.1
20260905183009 75 333 4.3 8.7 0.00 0.02 0.01 75 1017.1
20260905182009 75 328 3.5 8.7 0.00 0.02 0.01 76 1017.1
20260905181009 75 44 4.3 10.4 0.00 0.02 0.01 75 1017.1
20260905180009 75 348 1.7 7.8 0.00 0.02 0.01 74 1017.0
20260905175008 76 88 1.7 7.8 0.00 0.02 0.01 74 1016.9
20260905174008 76 85 4.3 10.4 0.00 0.02 0.01 73 1016.9
20260905173008 76 332 2.6 5.2 0.00 0.02 0.01 74 1017.0
20260905172007 75 96 2.6 7.8 0.00 0.02 0.01 75 1017.0
20260905171007 75 50 2.6 7.8 0.00 0.02 0.01 76 1017.1
20260905170007 75 338 2.6 7.8 0.00 0.02 0.01 75 1017.2
20260905164006 75 353 3.5 7.8 0.00 0.02 0.01 76 1017.3
20260905163006 74 70 5.2 9.6 0.00 0.02 0.01 77 1017.1
20260905162006 74 343 0.9 8.7 0.00 0.02 0.01 77 1017.2
20260905161006 74 340 3.5 7.8 0.00 0.02 0.01 78 1017.0
20260905160006 74 335 4.3 7.8 0.00 0.02 0.01 78 1016.9
20260905155005 74 53 1.7 7.0 0.00 0.02 0.01 78 1017.1
20260905152004 73 333 0.9 8.7 0.00 0.02 0.01 81 1016.6
20260905151004 73 61 3.5 8.7 0.00 0.02 0.01 81 1016.5
20260905150004 73 39 0.9 8.7 0.00 0.02 0.01 81 1016.4
20260905145003 73 338 2.6 8.7 0.00 0.02 0.01 82 1016.6
20260905144003 73 328 0.9 6.1 0.00 0.02 0.01 83 1016.4
20260905143003 73 328 4.3 4.3 0.00 0.02 0.01 83 1016.3
20260905142002 73 342 2.6 5.2 0.00 0.02 0.01 83 1016.3
20260905141002 72 81 2.6 5.2 0.00 0.02 0.01 84 1016.0
20260905140002 72 8 1.7 8.7 0.00 0.02 0.01 84 1016.1
20260905135001 72 89 0.0 6.1 0.00 0.02 0.01 84 1016.2
20260905134001 72 61 0.0 6.1 0.00 0.02 0.01 84 1016.3
20260905133001 73 6 0.9 5.2 0.00 0.02 0.01 85 1016.5
20260905132000 73 39 1.7 4.3 0.00 0.02 0.01 86 1016.3
20260905131001 72 342 0.9 3.5 0.00 0.02 0.01 86 1016.0
20260905130000 72 348 1.7 3.5 0.00 0.02 0.01 87 1015.9
20260905125000 72 59 0.9 3.5 0.00 0.02 0.01 87 1015.8
20260905124000 71 47 0.0 4.3 0.00 0.02 0.01 87 1015.7